This is the latest recevied weather packets stored in our database for station/object VE2JJ-13. If no packets are shown the sender has not sent any weather packets the latest 10 day(s).
| Time | Temp. | Humidity | Pressure | Rain* | Wind** | Luminosity | Snow |
|---|---|---|---|---|---|---|---|
| 1777631083 | 0.56° C | 89% | 1004.1 hPa | 0 mm | - | - | - |
| 1777630753 | 0.56° C | 88% | 1004.1 hPa | 0 mm | - | - | - |
| 1777630423 | 0° C | 86% | 1004.1 hPa | 0 mm | - | - | - |
| 1777630123 | 0° C | 85% | 1004.1 hPa | 0 mm | - | - | - |
| 1777629825 | 0° C | 86% | 1003.9 hPa | 0 mm | - | - | - |
| 1777629494 | 0.56° C | 86% | 1003.9 hPa | 0 mm | - | - | - |
| 1777629167 | 0.56° C | 86% | 1003.9 hPa | 0 mm | - | - | - |
| 1777628866 | 0.56° C | 85% | 1003.8 hPa | 0 mm | - | - | - |
| 1777628268 | 1.11° C | 84% | 1003.7 hPa | 0 mm | - | - | - |
| 1777627934 | 1.11° C | 86% | 1003.7 hPa | 0 mm | - | - | - |
| 1777627635 | 1.11° C | 85% | 1003.8 hPa | 0 mm | - | - | - |
| 1777627303 | 1.67° C | 85% | 1003.8 hPa | 0 mm | - | - | - |
| 1777627003 | 1.67° C | 85% | 1003.8 hPa | 0 mm | - | - | - |
| 1777626703 | 1.67° C | 85% | 1003.7 hPa | 0 mm | - | - | - |
| 1777626372 | 1.67° C | 85% | 1003.7 hPa | 0 mm | - | - | - |
| 1777626043 | 2.22° C | 85% | 1003.7 hPa | 0 mm | - | - | - |
| 1777625714 | 2.22° C | 84% | 1003.7 hPa | 0 mm | - | - | - |
| 1777625112 | 2.78° C | 82% | 1003.7 hPa | 0 mm | - | - | - |
| 1777624786 | 2.78° C | 82% | 1003.6 hPa | 0 mm | - | - | - |
| 1777624454 | 3.33° C | 83% | 1003.6 hPa | 0 mm | - | - | - |
| 1777624153 | 3.33° C | 83% | 1003.6 hPa | 0 mm | - | - | - |
| 1777623827 | 3.33° C | 83% | 1003.7 hPa | 0 mm | - | - | - |
| 1777623526 | 3.33° C | 83% | 1003.7 hPa | 0 mm | - | - | - |
| 1777623224 | 3.33° C | 83% | 1003.6 hPa | 0 mm | - | - | - |
| 1777622925 | 3.33° C | 83% | 1003.6 hPa | 0 mm | - | - | - |
* Rain latest hour (hover to see other rain measurements)
** Current wind speed in m/s (hover to see current wind gust speed)